TimeCDT,TemperatureF,Dew PointF,Humidity,Sea Level PressureIn,VisibilityMPH,Wind Direction,Wind SpeedMPH,Gust SpeedMPH,PrecipitationIn,Events,Conditions,WindDirDegrees,DateUTC
12:15 AM,69.8,64.4,83,29.83,10.0,SW,6.9,-,N/A,,Clear,230,2013-06-27 05:15:00
12:35 AM,69.8,64.4,83,29.83,10.0,WSW,6.9,-,N/A,,Clear,240,2013-06-27 05:35:00
12:55 AM,71.6,64.4,78,29.84,10.0,WSW,9.2,-,N/A,,Clear,240,2013-06-27 05:55:00
1:15 AM,69.8,64.4,83,29.85,10.0,WSW,5.8,-,N/A,,Clear,250,2013-06-27 06:15:00
1:34 AM,69.8,64.4,83,29.85,10.0,WSW,6.9,-,N/A,,Scattered Clouds,250,2013-06-27 06:34:00
1:54 AM,71.6,64.4,78,29.85,10.0,West,5.8,-,N/A,,Scattered Clouds,270,2013-06-27 06:54:00
2:15 AM,71.6,64.4,78,29.85,10.0,West,6.9,-,N/A,,Clear,280,2013-06-27 07:15:00
2:35 AM,71.6,64.4,78,29.86,10.0,West,9.2,-,N/A,,Clear,270,2013-06-27 07:35:00
2:55 AM,71.6,64.4,78,29.86,10.0,West,8.1,-,N/A,,Clear,260,2013-06-27 07:55:00
3:15 AM,71.6,64.4,78,29.86,10.0,West,9.2,-,N/A,,Clear,270,2013-06-27 08:15:00
3:35 AM,69.8,64.4,83,29.87,10.0,West,9.2,-,N/A,,Clear,270,2013-06-27 08:35:00
3:55 AM,69.8,62.6,78,29.87,10.0,West,6.9,-,N/A,,Clear,270,2013-06-27 08:55:00
4:15 AM,69.8,62.6,78,29.87,10.0,West,8.1,-,N/A,,Clear,270,2013-06-27 09:15:00
4:34 AM,69.8,62.6,78,29.86,10.0,West,8.1,-,N/A,,Clear,260,2013-06-27 09:34:00
4:54 AM,69.8,62.6,78,29.87,10.0,West,8.1,-,N/A,,Clear,270,2013-06-27 09:54:00
5:15 AM,69.8,62.6,78,29.87,10.0,West,8.1,-,N/A,,Clear,260,2013-06-27 10:15:00
5:34 AM,69.8,60.8,73,29.87,10.0,West,10.4,-,N/A,,Clear,270,2013-06-27 10:34:00
5:55 AM,68.0,60.8,78,29.87,10.0,West,10.4,-,N/A,,Clear,280,2013-06-27 10:55:00
6:15 AM,69.8,60.8,73,29.87,10.0,West,9.2,-,N/A,,Clear,280,2013-06-27 11:15:00
6:34 AM,69.8,60.8,73,29.88,10.0,West,10.4,-,N/A,,Clear,270,2013-06-27 11:34:00
6:54 AM,69.8,60.8,73,29.89,10.0,West,8.1,-,N/A,,Clear,280,2013-06-27 11:54:00
7:14 AM,69.8,60.8,73,29.89,10.0,West,10.4,16.1,N/A,,Clear,270,2013-06-27 12:14:00
7:34 AM,69.8,60.8,73,29.89,10.0,West,10.4,-,N/A,,Clear,270,2013-06-27 12:34:00
7:55 AM,71.6,60.8,69,29.90,10.0,West,11.5,-,N/A,,Clear,280,2013-06-27 12:55:00
8:15 AM,73.4,60.8,65,29.90,10.0,West,11.5,-,N/A,,Clear,280,2013-06-27 13:15:00
8:34 AM,73.4,60.8,65,29.90,10.0,West,11.5,-,N/A,,Clear,280,2013-06-27 13:34:00
8:54 AM,73.4,62.6,69,29.90,10.0,West,11.5,-,N/A,,Clear,270,2013-06-27 13:54:00
9:15 AM,75.2,62.6,65,29.90,10.0,West,12.7,-,N/A,,Clear,280,2013-06-27 14:15:00
9:34 AM,75.2,62.6,65,29.90,10.0,WNW,15.0,20.7,N/A,,Clear,290,2013-06-27 14:34:00
9:54 AM,75.2,62.6,65,29.90,10.0,WNW,16.1,21.9,N/A,,Clear,290,2013-06-27 14:54:00
10:15 AM,77.0,62.6,61,29.90,10.0,NW,15.0,21.9,N/A,,Clear,310,2013-06-27 15:15:00
10:34 AM,78.8,60.8,54,29.90,10.0,NW,16.1,23.0,N/A,,Clear,310,2013-06-27 15:34:00
10:54 AM,78.8,62.6,57,29.90,10.0,WNW,16.1,20.7,N/A,,Clear,300,2013-06-27 15:54:00
11:15 AM,78.8,60.8,54,29.90,10.0,WNW,17.3,23.0,N/A,,Clear,300,2013-06-27 16:15:00
11:34 AM,78.8,60.8,54,29.91,10.0,NW,17.3,27.6,N/A,,Clear,310,2013-06-27 16:34:00
11:55 AM,80.6,60.8,51,29.91,10.0,WNW,16.1,23.0,N/A,,Clear,300,2013-06-27 16:55:00
12:14 PM,80.6,60.8,51,29.91,10.0,WNW,15.0,24.2,N/A,,Clear,290,2013-06-27 17:14:00
12:34 PM,80.6,60.8,51,29.91,10.0,West,16.1,20.7,N/A,,Clear,280,2013-06-27 17:34:00
12:55 PM,80.6,60.8,51,29.91,10.0,WNW,13.8,21.9,N/A,,Clear,300,2013-06-27 17:55:00
1:14 PM,82.4,60.8,48,29.91,10.0,West,12.7,20.7,N/A,,Clear,280,2013-06-27 18:14:00
1:35 PM,80.6,60.8,51,29.92,10.0,WNW,12.7,24.2,N/A,,Scattered Clouds,290,2013-06-27 18:35:00
1:55 PM,82.4,60.8,48,29.91,10.0,WNW,13.8,25.3,N/A,,Scattered Clouds,300,2013-06-27 18:55:00
2:15 PM,82.4,60.8,48,29.91,10.0,WNW,11.5,21.9,N/A,,Scattered Clouds,300,2013-06-27 19:15:00
2:35 PM,82.4,57.2,42,29.91,10.0,WNW,12.7,20.7,N/A,,Clear,290,2013-06-27 19:35:00
2:54 PM,82.4,57.2,42,29.90,10.0,West,13.8,23.0,N/A,,Scattered Clouds,270,2013-06-27 19:54:00
3:15 PM,82.4,60.8,48,29.90,10.0,West,15.0,21.9,N/A,,Scattered Clouds,270,2013-06-27 20:15:00
3:34 PM,82.4,57.2,42,29.90,10.0,WNW,11.5,18.4,N/A,,Scattered Clouds,290,2013-06-27 20:34:00
3:54 PM,82.4,57.2,42,29.90,10.0,West,19.6,26.5,N/A,,Clear,280,2013-06-27 20:54:00
4:15 PM,84.2,57.2,40,29.89,10.0,West,17.3,26.5,N/A,,Clear,280,2013-06-27 21:15:00
4:35 PM,84.2,57.2,40,29.89,10.0,West,19.6,25.3,N/A,,Scattered Clouds,280,2013-06-27 21:35:00
4:55 PM,82.4,55.4,39,29.89,10.0,WNW,18.4,25.3,N/A,,Scattered Clouds,290,2013-06-27 21:55:00
5:14 PM,84.2,55.4,37,29.89,10.0,WNW,18.4,29.9,N/A,,Scattered Clouds,290,2013-06-27 22:14:00
5:35 PM,84.2,55.4,37,29.88,10.0,West,19.6,27.6,N/A,,Scattered Clouds,280,2013-06-27 22:35:00
5:55 PM,84.2,55.4,37,29.88,10.0,WNW,18.4,25.3,N/A,,Clear,290,2013-06-27 22:55:00
6:15 PM,82.4,55.4,39,29.88,10.0,WNW,20.7,28.8,N/A,,Clear,290,2013-06-27 23:15:00
6:34 PM,82.4,55.4,39,29.88,10.0,WNW,19.6,26.5,N/A,,Clear,290,2013-06-27 23:34:00
6:54 PM,82.4,53.6,37,29.88,10.0,WNW,20.7,27.6,N/A,,Clear,290,2013-06-27 23:54:00
7:14 PM,82.4,53.6,37,29.88,10.0,WNW,23.0,28.8,N/A,,Clear,290,2013-06-28 00:14:00
7:34 PM,82.4,53.6,37,29.88,10.0,WNW,17.3,23.0,N/A,,Clear,290,2013-06-28 00:34:00
7:54 PM,80.6,55.4,42,29.88,10.0,WNW,13.8,23.0,N/A,,Clear,290,2013-06-28 00:54:00
8:15 PM,80.6,55.4,42,29.88,10.0,WNW,15.0,19.6,N/A,,Clear,290,2013-06-28 01:15:00
8:34 PM,78.8,55.4,44,29.88,10.0,WNW,12.7,-,N/A,,Clear,300,2013-06-28 01:34:00
8:54 PM,78.8,55.4,44,29.88,10.0,WNW,12.7,-,N/A,,Clear,290,2013-06-28 01:54:00
9:14 PM,75.2,55.4,50,29.88,10.0,WNW,9.2,-,N/A,,Clear,290,2013-06-28 02:14:00
9:34 PM,75.2,55.4,50,29.89,10.0,WNW,11.5,-,N/A,,Clear,300,2013-06-28 02:34:00
9:54 PM,75.2,55.4,50,29.90,10.0,WNW,9.2,-,N/A,,Clear,300,2013-06-28 02:54:00
10:14 PM,73.4,57.2,57,29.90,10.0,NW,8.1,-,N/A,,Clear,310,2013-06-28 03:14:00
10:34 PM,73.4,57.2,57,29.90,10.0,WNW,8.1,-,N/A,,Clear,300,2013-06-28 03:34:00
10:54 PM,73.4,57.2,57,29.91,10.0,WNW,6.9,-,N/A,,Clear,300,2013-06-28 03:54:00
11:14 PM,71.6,57.2,60,29.91,10.0,NW,8.1,-,N/A,,Clear,310,2013-06-28 04:14:00
11:34 PM,71.6,57.2,60,29.91,10.0,WNW,9.2,-,N/A,,Clear,290,2013-06-28 04:34:00
11:54 PM,69.8,57.2,64,29.91,10.0,WNW,6.9,-,N/A,,Clear,290,2013-06-28 04:54:00